Regional Weather Roundup
Issued by NWS

Home | Current Version | Previous Version | Graphics & Text | Print | Product List | Glossary Off
Versions: 1 2 3 4 5 6 7 8 9 10 11 12 13 14 15 16 17 18 19 20 21 22 23 24 25 26 27 28 29 30 31 32 33 34 35 36 37 38 39 40 41 42 43 44 45 46 47 48 49 50

000
ASUS43 KTOP 040408
RWRKS

WEATHER ROUNDUP FOR KANSAS
NATIONAL WEATHER SERVICE GOODLAND KS
1100 PM CDT FRI JUL 03 2015

NOTE:  "FAIR" INDICATES FEW OR NO CLOUDS BELOW 12,000 FEET WITH NO
SIGNIFICANT WEATHER AND/OR OBSTRUCTIONS TO VISIBILITY.

KSZ001>006-013>018-027>032-041>047-040500-
NORTHWEST KANSAS

CITY           SKY/WX    TMP DP  RH WIND       PRES   REMARKS
GOODLAND       MOCLDY    71  58  63 SE12      30.07R
HAYS           CLEAR     70  57  64 SE7       30.02R
HILL CITY      CLEAR     68  58  70 E6        30.02R
RUSSELL        CLEAR     70  62  76 E8        30.00R
$$

KSZ061>065-074>080-084>089-040500-
SOUTHWEST KANSAS

CITY           SKY/WX    TMP DP  RH WIND       PRES   REMARKS
DODGE CITY     PTCLDY    69  58  67 E6        30.02R
ELKHART          N/A     67  58  73 S7          N/A
GARDEN CITY    PTCLDY    70  65  84 SE6       30.03R
GREAT BEND     CLEAR     72  63  73 SE5       30.02R
LIBERAL        CLEAR     72  63  73 S6          N/A
PRATT          PTCLDY    72  59  64 SE3       30.02R
$$

KSZ066>073-081>083-090>101-040500-
SOUTHEAST KANSAS

CITY           SKY/WX    TMP DP  RH WIND       PRES   REMARKS
CHANUTE        CLEAR     72  66  81 E5        29.97R
COFFEYVILLE    MOCLDY    74  68  81 NE3       29.95R
HUTCHINSON     CLEAR     70  62  76 E3        29.99R
MEDICINE LODGE   N/A     72  62  71 E7        29.98R
NEWTON         CLEAR     70  61  73 CALM      30.02R
PARSONS        CLEAR     70  68  93 CALM      29.97R
WICHITA INTL   CLEAR     74  63  68 E7        29.98R
WICHITA JABRA  CLEAR     70  63  78 E3        29.99R
WICHITA MCCONL CLEAR     73  64  71 E6        29.99R
WINFIELD       CLEAR     74  64  71 NE3       29.99R
$$

KSZ007>012-019>026-033>040-048>060-102>105-040500-
NORTHEAST KANSAS

CITY           SKY/WX    TMP DP  RH WIND       PRES   REMARKS
CONCORDIA      CLEAR     68  63  84 CALM      30.01R
EMPORIA        CLEAR     68  62  81 NE5       29.98R
LAWRENCE       CLEAR     63  60  90 CALM      29.98R
MANHATTAN      CLEAR     66  61  84 CALM      29.98R
MARYSVILLE     CLEAR     64  59  82 E5        30.00R
OLATHE IND     CLEAR     70  57  63 NE5       29.99R
OLATHE EXE     CLEAR     66  60  81 CALM      29.98R
SALINA         CLEAR     75  62  64 E5        29.99R
TOPEKA BILLARD CLEAR     65  63  93 CALM      29.98R
TOPEKA FORBES    N/A    N/A N/A N/A MISG      29.98R
$$



USA.gov is the U.S. government's official web portal to all federal, state and local government web resources and services.